Location: ČR
(50.0000°N, 15.0000°E)
Time: 00:34:04
(UTC+01:00)

A-11 Canister half - All Passes

Search period start: 15 March 2026 00:00
Search period end: 25 March 2026 00:00
Orbit: 1513 x 1686 km, 47.2° (Epoch: 14 March)

Date Brightness Start Highest point End Pass type
(mag) Time Alt. Az. Time Alt. Az. Time Alt. Az.
15 Mar - 12:00:00 10° SSE 12:05:48 17° SE 12:11:42 10° E daylight
15 Mar - 13:59:29 10° SW 14:08:48 47° SSE 14:18:19 10° ENE daylight
15 Mar - 16:03:07 10° WSW 16:13:10 75° S 16:23:20 10° E daylight
15 Mar - 18:07:55 10° W 18:18:01 71° SSW 18:28:04 10° ESE daylight
15 Mar - 20:12:58 10° WNW 20:22:09 40° SW 20:31:12 10° SSE visible
15 Mar - 22:21:08 10° W 22:24:51 13° WSW 22:28:32 10° SW visible
16 Mar - 11:37:33 10° SSE 11:42:53 16° SE 11:48:17 10° E daylight
16 Mar - 13:36:36 10° SW 13:45:48 45° SE 13:55:14 10° ENE daylight
16 Mar - 15:40:05 10° WSW 15:50:06 74° SSE 16:00:15 10° E daylight
16 Mar - 17:44:51 10° W 17:54:57 72° SSW 18:05:03 10° ESE daylight
16 Mar - 19:49:53 10° WNW 19:59:09 42° SW 20:08:19 10° SSE visible
16 Mar - 21:57:28 10° W 22:01:56 14° WSW 22:06:23 10° SSW visible
17 Mar - 11:15:11 10° SSE 11:19:59 15° SE 11:24:49 10° E daylight
17 Mar - 13:13:42 10° SSW 13:22:48 43° SE 13:32:08 10° ENE daylight
17 Mar - 15:17:03 10° WSW 15:27:01 73° SSE 15:37:10 10° E daylight
17 Mar - 17:21:47 10° W 17:31:52 73° SSW 17:41:59 10° ESE daylight
17 Mar - 19:26:47 10° WNW 19:36:08 44° SW 19:45:26 10° SSE visible
17 Mar - 21:33:57 10° W 21:39:02 15° SW 21:44:05 10° SSW visible
18 Mar - 10:52:56 10° SSE 10:57:04 13° ESE 11:01:15 10° E daylight
18 Mar - 12:50:50 10° SSW 12:59:48 42° SE 13:09:00 10° ENE daylight
18 Mar - 14:54:01 10° WSW 15:03:57 72° SSE 15:14:05 10° E daylight
18 Mar - 16:58:44 10° W 17:08:48 74° S 17:18:56 10° ESE daylight
18 Mar - 19:03:40 10° WNW 19:13:08 46° SW 19:22:32 10° SE visible
18 Mar - 21:10:30 10° W 21:16:06 16° SW 21:21:41 10° SSW visible
19 Mar - 10:30:52 10° SE 10:34:11 12° ESE 10:37:31 10° ESE daylight
19 Mar - 12:27:58 10° SSW 12:36:49 40° SE 12:45:54 10° ENE daylight
19 Mar - 14:31:01 10° WSW 14:40:54 71° SSE 14:51:01 10° E daylight
19 Mar - 16:35:40 10° W 16:45:44 75° S 16:55:53 10° ESE daylight
19 Mar - 18:40:35 10° WNW 18:50:07 48° SSW 18:59:36 10° SE visible
19 Mar - 20:47:07 10° W 20:53:11 18° SW 20:59:12 10° SSW visible
20 Mar - 10:09:10 10° SE 10:11:17 11° ESE 10:13:24 10° ESE daylight
20 Mar - 12:05:08 10° SSW 12:13:50 38° SE 12:22:46 10° ENE daylight
20 Mar - 14:07:59 10° WSW 14:17:50 69° SSE 14:27:55 10° E daylight
20 Mar - 16:12:36 10° W 16:22:40 75° S 16:32:49 10° ESE daylight
20 Mar - 18:17:30 10° WNW 18:27:06 49° SSW 18:36:39 10° SE daylight
20 Mar - 20:23:48 10° W 20:30:15 19° SW 20:36:41 10° SSW visible
21 Mar - 11:42:18 10° SSW 11:50:50 36° SE 11:59:38 10° ENE daylight
21 Mar - 13:45:00 10° WSW 13:54:47 68° SSE 14:04:50 10° E daylight
21 Mar - 15:49:32 10° W 15:59:35 76° S 16:09:45 10° ESE daylight
21 Mar - 17:54:25 10° WNW 18:04:04 51° SSW 18:13:43 10° SE daylight
21 Mar - 20:00:31 10° W 20:07:19 21° SW 20:14:06 10° S visible
22 Mar - 11:19:29 10° SSW 11:27:52 34° SE 11:36:30 10° E daylight
22 Mar - 13:21:59 10° WSW 13:31:44 66° SSE 13:41:45 10° E daylight
22 Mar - 15:26:30 10° W 15:36:30 77° S 15:46:41 10° ESE daylight
22 Mar - 17:31:21 10° WNW 17:41:02 53° SSW 17:50:46 10° SE daylight
22 Mar - 19:37:15 10° W 19:44:22 22° SW 19:51:28 10° S visible
23 Mar - 10:56:42 10° SSW 11:04:54 32° SE 11:13:21 10° E daylight
23 Mar - 12:58:59 10° WSW 13:08:41 65° SSE 13:18:39 10° E daylight
23 Mar - 15:03:26 10° W 15:13:26 77° S 15:23:36 10° E daylight
23 Mar - 17:08:17 10° W 17:18:00 55° SSW 17:27:48 10° SE daylight
23 Mar - 19:14:02 10° W 19:21:25 24° SW 19:28:48 10° S visible
24 Mar - 10:33:56 10° SSW 10:41:56 31° SE 10:50:11 10° E daylight
24 Mar - 12:36:01 10° SW 12:45:39 63° SSE 12:55:34 10° E daylight
24 Mar - 14:40:23 10° W 14:50:21 77° S 15:00:32 10° E daylight
24 Mar - 16:45:13 10° W 16:54:58 57° SSW 17:04:48 10° SE daylight
24 Mar - 18:50:50 10° W 18:58:28 25° SW 19:06:06 10° S visible
